This demonstration page uses our WeatherBlox Daily Observations layout. Learn more.

Left ArrowRight Arrow

Hourly Observations for January 17, 2020

Temp ( °F °C ) Dew Point ( °F °C ) Humidity (%) Winds ( mph kmh ) Pressure ( in mb ) Visibility ( mi km ) Precip ( " mm )
12:15 am 00:15 Partly Cloudy 21 -6 19 -7 93 93 NNE 10 17 30.79 1043 10 16.0934 N/A
12:36 am 00:36 Partly Cloudy 21 -6 19 -7 93 93 NNE 7 11 30.8 1043 10 16.0934 N/A
12:55 am 00:55 Clear 19 -7 19 -7 100 100 N 6 9 30.8 1043 10 16.0934 N/A
1:15 am 01:15 Clear 19 -7 19 -7 100 100 N 6 9 30.81 1043 10 16.0934 N/A
1:35 am 01:35 Mostly Cloudy 21 -6 19 -7 93 93 NE 7 11 30.81 1043 10 16.0934 N/A
1:55 am 01:55 Partly Cloudy 21 -6 19 -7 93 93 NNE 8 13 30.81 1043 10 16.0934 N/A
2:16 am 02:16 Mostly Cloudy 21 -6 19 -7 93 93 NE 9 15 30.83 1044 10 16.0934 N/A
2:36 am 02:36 Mostly Cloudy 21 -6 19 -7 93 93 NNE 10 17 30.83 1044 10 16.0934 N/A
2:56 am 02:56 Partly Cloudy 21 -6 19 -7 93 93 NNE 10 17 30.83 1044 10 16.0934 N/A
3:15 am 03:15 Partly Cloudy 21 -6 19 -7 93 93 NE 12 19 30.82 1044 10 16.0934 N/A
3:35 am 03:35 Clear 21 -6 19 -7 93 93 NE 14 22 30.81 1043 10 16.0934 N/A
3:55 am 03:55 Clear 21 -6 19 -7 93 93 NE 12 19 30.81 1043 10 16.0934 N/A
4:16 am 04:16 Clear 21 -6 19 -7 93 93 NE 10 17 30.81 1043 10 16.0934 N/A
4:35 am 04:35 Partly Cloudy 21 -6 19 -7 93 93 ENE 12 19 30.82 1044 10 16.0934 N/A
4:55 am 04:55 Partly Cloudy 21 -6 19 -7 93 93 NE 8 13 30.81 1043 10 16.0934 N/A
5:15 am 05:15 Partly Cloudy 21 -6 19 -7 93 93 NE 9 15 30.81 1043 10 16.0934 N/A
5:35 am 05:35 Partly Cloudy 19 -7 19 -7 100 100 ENE 6 9 30.81 1043 10 16.0934 N/A
5:56 am 05:56 Clear 21 -6 19 -7 93 93 ENE 8 13 30.81 1043 10 16.0934 N/A
6:15 am 06:15 Clear 21 -6 18 -8 86 86 ENE 7 11 30.82 1044 10 16.0934 N/A
6:36 am 06:36 Mostly Cloudy 21 -6 19 -7 93 93 ENE 6 9 30.83 1044 10 16.0934 N/A
6:56 am 06:56 Cloudy 21 -6 19 -7 93 93 ENE 6 9 30.83 1044 10 16.0934 N/A
7:15 am 07:15 Mostly Cloudy 21 -6 19 -7 93 93 E 9 15 30.84 1044 10 16.0934 N/A
7:35 am 07:35 Mostly Cloudy 21 -6 19 -7 93 93 E 9 15 30.83 1044 10 16.0934 N/A
7:55 am 07:55 Mostly Cloudy 21 -6 19 -7 93 93 E 10 17 30.83 1044 10 16.0934 N/A
8:15 am 08:15 Partly Cloudy 21 -6 19 -7 93 93 E 7 11 30.83 1044 10 16.0934 N/A
8:35 am 08:35 Mostly Cloudy 21 -6 19 -7 93 93 E 9 15 30.83 1044 10 16.0934 N/A
8:55 am 08:55 Partly Cloudy 21 -6 19 -7 93 93 E 10 17 30.83 1044 10 16.0934 N/A
9:15 am 09:15 Partly Cloudy 23 -5 19 -7 86 86 E 10 17 30.81 1043 10 16.0934 N/A
9:35 am 09:35 Partly Cloudy 23 -5 21 -6 93 93 E 13 20 30.8 1043 10 16.0934 N/A
9:55 am 09:55 Partly Cloudy 23 -5 21 -6 93 93 E 15 24 30.8 1043 10 16.0934 N/A
10:15 am 10:15 Sunny 23 -5 19 -7 86 86 E 13 20 30.8 1043 10 16.0934 N/A
10:35 am 10:35 Sunny 23 -5 21 -6 93 93 ESE 13 20 30.8 1043 10 16.0934 N/A
10:55 am 10:55 Sunny 25 -4 21 -6 86 86 ESE 14 22 30.78 1042 10 16.0934 N/A
11:15 am 11:15 Sunny 25 -4 21 -6 86 86 ESE 15 24 30.77 1042 10 16.0934 N/A
11:35 am 11:35 Sunny 27 -3 21 -6 80 80 ESE 14 22 30.75 1041 10 16.0934 N/A
11:56 am 11:56 Sunny 27 -3 21 -6 80 80 ESE 12 19 30.75 1041 10 16.0934 N/A
12:15 pm 12:15 Sunny 27 -3 21 -6 80 80 ESE 9 15 30.74 1041 10 16.0934 N/A
12:35 pm 12:35 Partly Cloudy 27 -3 21 -6 80 80 SE 12 19 30.72 1040 10 16.0934 N/A
12:55 pm 12:55 Mostly Cloudy 27 -3 23 -5 86 86 ESE 12 19 30.7 1040 10 16.0934 N/A
1:15 pm 13:15 Mostly Cloudy 27 -3 21 -6 80 80 ESE 10 17 30.69 1039 10 16.0934 N/A
1:36 pm 13:36 Partly Cloudy 28 -2 21 -6 74 74 SE 10 17 30.68 1039 10 16.0934 N/A
1:56 pm 13:56 Partly Cloudy 28 -2 21 -6 74 74 ESE 12 19 30.66 1038 10 16.0934 N/A
2:15 pm 14:15 Partly Cloudy 28 -2 21 -6 74 74 ESE 10 17 30.66 1038 10 16.0934 N/A
2:36 pm 14:36 Mostly Cloudy 28 -2 21 -6 74 74 SE 9 15 30.65 1038 10 16.0934 N/A
2:55 pm 14:55 Cloudy 28 -2 21 -6 74 74 ESE 12 19 30.63 1037 10 16.0934 N/A
3:15 pm 15:15 Mostly Cloudy 28 -2 23 -5 80 80 SE 7 11 30.63 1037 10 16.0934 N/A
3:35 pm 15:35 Mostly Cloudy 28 -2 21 -6 74 74 ESE 10 17 30.61 1037 10 16.0934 N/A
3:55 pm 15:55 Cloudy 28 -2 21 -6 74 74 ESE 12 19 30.59 1036 10 16.0934 N/A
4:15 pm 16:15 Cloudy 28 -2 23 -5 80 80 ESE 12 19 30.59 1036 10 16.0934 N/A
4:36 pm 16:36 Cloudy 30 -1 23 -5 75 75 ESE 10 17 30.57 1035 10 16.0934 N/A
4:55 pm 16:55 Cloudy 30 -1 23 -5 75 75 ESE 12 19 30.56 1035 10 16.0934 N/A
5:15 pm 17:15 Cloudy 30 -1 23 -5 75 75 E 17 28 30.53 1034 10 16.0934 N/A
5:35 pm 17:35 Cloudy 30 -1 23 -5 75 75 E 14 22 30.51 1033 10 16.0934 N/A
5:55 pm 17:55 Cloudy 30 -1 23 -5 75 75 ESE 12 19 30.53 1034 10 16.0934 N/A
6:15 pm 18:15 Cloudy 30 -1 23 -5 75 75 SE 10 17 30.55 1035 10 16.0934 N/A
6:35 pm 18:35 Cloudy 30 -1 23 -5 75 75 SE 12 19 30.54 1034 10 16.0934 N/A
6:55 pm 18:55 Cloudy 30 -1 23 -5 75 75 ESE 9 15 30.52 1034 10 16.0934 N/A
7:16 pm 19:16 Cloudy 30 -1 23 -5 75 75 ESE 13 20 30.49 1032 10 16.0934 N/A
7:35 pm 19:35 Cloudy 30 -1 23 -5 75 75 ESE 17 28 30.47 1032 10 16.0934 N/A
7:55 pm 19:55 Cloudy 30 -1 23 -5 75 75 SE 16 26 30.47 1032 10 16.0934 N/A
8:16 pm 20:16 Cloudy 30 -1 23 -5 75 75 ESE 14 22 30.45 1031 10 16.0934 N/A
8:35 pm 20:35 Cloudy 32 0 23 -5 69 69 SE 12 19 30.44 1031 10 16.0934 N/A
8:56 pm 20:56 Cloudy 30 -1 25 -4 80 80 SE 12 19 30.43 1030 7 11.26538 N/A
9:16 pm 21:16 Cloudy 30 -1 27 -3 86 86 SE 13 20 30.41 1030 10 16.0934 N/A
9:35 pm 21:35 Cloudy 30 -1 27 -3 86 86 ESE 15 24 30.39 1029 10 16.0934 N/A
9:56 pm 21:56 Cloudy 30 -1 27 -3 86 86 ESE 14 22 30.35 1028 10 16.0934 N/A
10:16 pm 22:16 Cloudy 30 -1 27 -3 86 86 ESE 15 24 30.33 1027 10 16.0934 N/A
10:35 pm 22:35 Cloudy 30 -1 27 -3 86 86 ESE 13 20 30.31 1026 10 16.0934 N/A
10:55 pm 22:55 Cloudy 30 -1 28 -2 93 93 SE 12 19 30.32 1027 10 16.0934 N/A
11:15 pm 23:15 Cloudy 30 -1 28 -2 93 93 SSE 12 19 30.33 1027 10 16.0934 N/A
11:35 pm 23:35 Cloudy 30 -1 28 -2 93 93 SE 10 17 30.32 1027 10 16.0934 N/A
11:55 pm 23:55 Cloudy 30 -1 28 -2 93 93 SE 12 19 30.32 1027 10 16.0934 N/A

Powered by AerisWeather